User: anonymous   Login
Location: Hoyos del Collado
(40.3594°N, 5.2003°W)
Time: 18:11:47
(UTC+00:00)
Language:

Cosmos 1300 Rocket - Orbit

View from above orbital plane
View from above orbital plane
View from above satellite
View from above satellite

Ground track
Ground track

The orbit data is extracted from the following two-line orbital elements,

1 12786U 81082B   24165.84730693  .00000763  00000-0  84453-4 0  9995
2 12786  82.4889  79.9208 0018738 100.9337 259.3988 14.85943501292692
Epoch (UTC): 13 June 2024 20:20:07
Eccentricity: 0.0018738
inclination: 82.4889°
perigee height: 597 km
apogee height: 624 km
right ascension of ascending node: 79.9208°
argument of perigee: 100.9337°
revolutions per day: 14.85943501
mean anomaly at epoch: 259.3988°
orbit number at epoch: 29269

The dashed part of the orbit path shows where the satellite is in the earth's shadow,  

DLR